Erzurum, Turkey

12:40 AM EET on February 08, 2016 (GMT +0200)
Erzurum

Weather History for LTCE - December, 2012

Change the Weather History Date:

Sunday, December 23, 2012

  Actual Average Record
Temperature  
Mean Temperature 30 °F -  
Max Temperature 36 °F 26 °F 39 °F (2008)
Min Temperature 24 °F 13 °F -16 °F (2000)
Degree Days  
Heating Degree Days 35    
Moisture  
Dew Point 29 °F    
Average Humidity 89    
Maximum Humidity 100    
Minimum Humidity 71    
Precipitation  
Precipitation 0.00 in 0.03 in - ()
Sea Level Pressure  
Sea Level Pressure 30.08 in    
Wind  
Wind Speed 4 mph ()    
Max Wind Speed 14 mph    
Max Gust Speed -    
Visibility 5.9 miles    
Events Fog , Snow    
Averages and records for this station are not official NWS values.
T = Trace of Precipitation, MM = Missing Value Source: Averaged Metar Reports

Daily Weather History Graph

Daily Weather History Graph

Search for Another Location

Airport or City:

Trip Planner

Search our weather history database for the weather conditions in past years. The results will help you decide how hot, cold, wet, or windy it might be!

Date:

Astronomy

Dec. 23, 2012 Rise Set
Actual Time 6:34 AM EET 3:54 PM EET
Civil Twilight 6:03 AM EET 4:25 PM EET
Nautical Twilight 5:29 AM EET 4:59 PM EET
Astronomical Twilight 4:56 AM EET 5:32 PM EET
Moon 12:32 PM EET (12/23) 1:56 AM EET (12/23)
Length of Visible Light 10h 21m
Length of Day
9h 20m
Waxing Gibbous, 79% of the Moon is Illuminated
Dec 23
Waxing Gibbous
Dec 28
Full
Jan 5
Last Quarter
Jan 11
New
Jan 19
First Quarter

Hourly Weather History & Observations

Time (EET) Temp. Windchill Dew Point Humidity Pressure Visibility Wind Dir Wind Speed Gust Speed Precip Events Conditions
12:20 AM 28.4 °F - 26.6 °F 93% 30.06 in 6.2 mi Calm Calm - N/A   Mostly Cloudy
12:50 AM 30.2 °F - 26.6 °F 86% 30.06 in 6.2 mi Variable 2.3 mph - N/A   Mostly Cloudy
1:20 AM 30.2 °F - 26.6 °F 86% 30.06 in 6.2 mi Variable 2.3 mph - N/A   Mostly Cloudy
1:50 AM 28.4 °F 23.3 °F 26.6 °F 93% 30.06 in 6.2 mi NW 4.6 mph - N/A   Mostly Cloudy
2:00 AM 29 °F - 28 °F 92%  in 12 mi NW 4.6 mph - -   Partly Cloudy
2:20 AM 28.4 °F 24.6 °F 28.4 °F 100% 30.06 in 6.2 mi NNE 3.5 mph - N/A Snow Light Snow
2:50 AM 28.4 °F 23.3 °F 26.6 °F 93% 30.06 in 6.2 mi North 4.6 mph - N/A Snow Light Snow
3:20 AM 28.4 °F 24.6 °F 28.4 °F 100% 30.06 in 6.2 mi North 3.5 mph - N/A Snow Light Snow
3:50 AM 28.4 °F - 28.4 °F 100% 30.06 in 6.2 mi Calm Calm - N/A Snow Light Snow
4:20 AM 28.4 °F 24.6 °F 28.4 °F 100% 30.06 in 3.7 mi East 3.5 mph - N/A Snow Light Snow
4:50 AM 28.4 °F 24.6 °F 28.4 °F 100% 30.09 in 2.5 mi SE 3.5 mph - N/A Snow Light Snow
5:20 AM 28.4 °F - 28.4 °F 100% 30.09 in 2.8 mi South 2.3 mph - N/A Snow Light Snow
5:50 AM 28.4 °F - 28.4 °F 100% 30.09 in 4.3 mi Variable 2.3 mph - N/A   Mostly Cloudy
6:20 AM 26.6 °F - 26.6 °F 100% 30.12 in 4.3 mi Variable 2.3 mph - N/A   Mostly Cloudy
6:50 AM 26.6 °F - 26.6 °F 100% 30.12 in 4.3 mi North 1.2 mph - N/A   Mostly Cloudy
7:20 AM 24.8 °F - 24.8 °F 100% 30.12 in 5.0 mi North 2.3 mph - N/A   Mostly Cloudy
7:50 AM 26.6 °F - 26.6 °F 100% 30.12 in 5.0 mi Variable 1.2 mph - N/A   Mostly Cloudy
8:00 AM 26 °F - 24 °F 91%  in 5 mi South 1.2 mph - -   Mist
8:20 AM 26.6 °F - 26.6 °F 100% 30.12 in 0.6 mi SSE 2.3 mph - N/A Fog Patches of Fog
8:50 AM 28.4 °F - 28.4 °F 100% 30.15 in 2.5 mi Variable 2.3 mph - N/A   Mostly Cloudy
9:20 AM 30.2 °F 25.4 °F 30.2 °F 100% 30.15 in - NW 4.6 mph - N/A   Mostly Cloudy
10:20 AM 30.2 °F 25.4 °F 30.2 °F 100% 30.15 in 2.5 mi NW 4.6 mph - N/A   Mostly Cloudy
10:50 AM 30.2 °F - 28.4 °F 93% 30.12 in 3.7 mi Variable 2.3 mph - N/A   Mostly Cloudy
11:20 AM 32.0 °F 28.7 °F 30.2 °F 93% 30.12 in 6.2 mi WNW 3.5 mph - N/A   Mostly Cloudy
11:50 AM 33.8 °F 27.0 °F 30.2 °F 87% 30.09 in 6.2 mi West 8.1 mph - N/A   Mostly Cloudy
12:20 PM 35.6 °F 30.7 °F 30.2 °F 81% 30.09 in 6.2 mi West 5.8 mph - N/A   Mostly Cloudy
12:50 PM 35.6 °F 31.7 °F 30.2 °F 81% 30.09 in 6.2 mi West 4.6 mph - N/A   Mostly Cloudy
1:20 PM 35.6 °F 28.6 °F 30.2 °F 81% 30.09 in 6.2 mi West 9.2 mph - N/A   Mostly Cloudy
1:50 PM 35.6 °F 29.2 °F 30.2 °F 81% 30.06 in 6.2 mi West 8.1 mph - N/A   Mostly Cloudy
2:00 PM 36 °F - 30 °F 71%  in 12 mi WSW 8.1 mph - -   Partly Cloudy
2:20 PM 35.6 °F 29.2 °F 30.2 °F 81% 30.06 in 6.2 mi NW 8.1 mph - N/A   Mostly Cloudy
2:50 PM 35.6 °F 31.7 °F 30.2 °F 81% 30.06 in 6.2 mi WSW 4.6 mph - N/A   Mostly Cloudy
3:20 PM 35.6 °F 30.7 °F 28.4 °F 75% 30.06 in 6.2 mi SW 5.8 mph - N/A   Mostly Cloudy
3:50 PM 35.6 °F 29.2 °F 30.2 °F 81% 30.06 in 6.2 mi WNW 8.1 mph - N/A   Mostly Cloudy
4:20 PM 35.6 °F 29.9 °F 30.2 °F 81% 30.06 in 6.2 mi WNW 6.9 mph - N/A   Mostly Cloudy
4:50 PM 35.6 °F 30.7 °F 30.2 °F 81% 30.06 in 6.2 mi WSW 5.8 mph - N/A   Mostly Cloudy
5:20 PM 35.6 °F 30.7 °F 30.2 °F 81% 30.06 in 6.2 mi WNW 5.8 mph - N/A   Mostly Cloudy
5:50 PM 35.6 °F 29.2 °F 30.2 °F 81% 30.06 in 6.2 mi West 8.1 mph - N/A   Mostly Cloudy
6:20 PM 35.6 °F 31.7 °F 30.2 °F 81% 30.06 in 6.2 mi WNW 4.6 mph - N/A   Mostly Cloudy
6:50 PM 35.6 °F 29.9 °F 30.2 °F 81% 30.06 in 6.2 mi WNW 6.9 mph - N/A   Mostly Cloudy
7:20 PM 35.6 °F 28.0 °F 30.2 °F 81% 30.06 in 6.2 mi NW 10.4 mph - N/A   Mostly Cloudy
7:50 PM 33.8 °F 27.7 °F 30.2 °F 87% 30.06 in 6.2 mi West 6.9 mph - N/A   Mostly Cloudy
8:00 PM 34 °F - 31 °F 84%  in 12 mi West 8.1 mph - -   Mostly Cloudy
8:20 PM 33.8 °F 27.0 °F 30.2 °F 87% 30.06 in 6.2 mi West 8.1 mph - N/A   Mostly Cloudy
8:50 PM 35.6 °F 28.0 °F 30.2 °F 81% 30.06 in 6.2 mi WSW 10.4 mph - N/A   Mostly Cloudy
9:20 PM 35.6 °F 27.5 °F 30.2 °F 81% 30.06 in 6.2 mi WSW 11.5 mph - N/A   Mostly Cloudy
9:50 PM 35.6 °F 28.0 °F 30.2 °F 81% 30.06 in 6.2 mi WSW 10.4 mph - N/A   Mostly Cloudy
10:20 PM 35.6 °F 27.5 °F 30.2 °F 81% 30.06 in 6.2 mi WSW 11.5 mph - N/A   Mostly Cloudy
10:50 PM 35.6 °F 26.6 °F 30.2 °F 81% 30.04 in 6.2 mi WSW 13.8 mph - N/A   Mostly Cloudy
11:20 PM 33.8 °F 26.4 °F 32.0 °F 93% 30.04 in 6.2 mi WNW 9.2 mph - N/A   Mostly Cloudy
11:50 PM 33.8 °F 26.4 °F 32.0 °F 93% 30.04 in 6.2 mi WNW 9.2 mph - N/A   Mostly Cloudy